Terminal Aerodrome Forecast
Issued by NWS Paducah, KY

Home | Current Version | Previous Version | Text Only | Print | Product List | Glossary On
Versions: 1 2 3 4 5 6 7 8 9 10 11 12 13 14
000
FTUS43 KPAH 231100
TAFEVV
TAF
KEVV 231122Z 2312/2412 00000KT 6SM BR FEW250
     FM231400 14003KT 6SM BR BKN250
     FM240100 00000KT P6SM BKN150=

USA.gov is the U.S. government's official web portal to all federal, state and local government web resources and services.